Location: Darmstadt
(49.8706°N, 8.6494°E)
Time: 07:27:43
(UTC+01:00)

NOSS 3-3 (A) - Pass Details

Date: 31 October 2020
Orbit: 819 x 1393 km, 63.4° (Epoch: 29 November)

Event Time Altitude Azimuth Distance (km) Brightness Sun altitude
Rises 19:25:28 0° 232° (SW) 3,436 7.6 -23.3°
Reaches altitude 10° 19:27:51 10° 236° (SW) 2,551 6.8 -23.6°
Maximum altitude 19:33:44 67° 318° (NW) 1,049 4.2 -24.6°
Enters shadow 19:37:29 27° 34° (NE) 1,862 5.2 -25.2°
